Newport, RI

10:47 AM EDT on May 22, 2018 (GMT -0400)
Newport State

Weather History for KUUU - November, 2013

Change the Weather History Date:

Sunday, November 3, 2013

  Actual Average Record
Temperature  
Mean Temperature 46 °F -  
Max Temperature 54 °F 59 °F 71 °F (1990)
Min Temperature 36 °F 45 °F 25 °F (1980)
Degree Days  
Heating Degree Days 20    
Moisture  
Dew Point 35 °F    
Average Humidity 70    
Maximum Humidity 82    
Minimum Humidity 41    
Precipitation  
Precipitation 0.00 in - - ()
Sea Level Pressure  
Sea Level Pressure 30.05 in    
Wind  
Wind Speed 10 mph (North)    
Max Wind Speed 15 mph    
Max Gust Speed 23 mph    
Visibility 10 miles    
Events      
Averages and records for this station are not official NWS values.
T = Trace of Precipitation, MM = Missing Value Source: NWS Daily Summary

Daily Weather History Graph

Daily Weather History Graph

Search for Another Location

Airport or City:

Astronomy

Nov. 03, 2013 Rise Set
Actual Time 6:19 AM EST 4:37 PM EST
Civil Twilight 5:50 AM EST 5:06 PM EST
Nautical Twilight 5:17 AM EST 5:38 PM EST
Astronomical Twilight 4:45 AM EST 6:11 PM EST
Moon 6:20 AM EST (11/3) 4:49 PM EST (11/3)
Length of Visible Light 11h 15m
Length of Day
10h 17m
New Moon, 0% of the Moon is Illuminated
Nov 3
New Moon
Nov 10
First Quarter
Nov 17
Full
Nov 25
Last Quarter
Dec 2
New

Hourly Weather History & Observations

Time (EST) Temp. Windchill Dew Point Humidity Pressure Visibility Wind Dir Wind Speed Gust Speed Precip Events Conditions
12:53 AM 54.0 °F - 45.0 °F 72% 29.74 in 10.0 mi NNW 4.6 mph - N/A   Clear
1:53 AM 53.1 °F - 45.0 °F 74% 29.75 in 10.0 mi NNW 5.8 mph - N/A   Clear
1:53 AM 52.0 °F - 44.1 °F 74% 29.78 in 10.0 mi North 6.9 mph - N/A   Clear
2:53 AM 50.0 °F - 43.0 °F 77% 29.80 in 10.0 mi NNW 11.5 mph 17.3 mph N/A   Partly Cloudy
3:53 AM 48.0 °F - 42.1 °F 80% 29.83 in 10.0 mi North 11.5 mph 18.4 mph N/A   Clear
4:33 AM 48.2 °F - 41.0 °F 76% 29.86 in 10.0 mi North 11.5 mph 20.7 mph N/A   Mostly Cloudy
4:53 AM 48.0 °F - 41.0 °F 77% 29.86 in 10.0 mi North 10.4 mph - N/A   Overcast
5:53 AM 46.9 °F - 39.0 °F 74% 29.90 in 10.0 mi North 12.7 mph 18.4 mph N/A   Overcast
6:53 AM 45.0 °F 38.5 °F 37.0 °F 74% 29.94 in 10.0 mi North 13.8 mph 18.4 mph N/A   Overcast
7:53 AM 44.1 °F 37.1 °F 37.9 °F 79% 29.99 in 10.0 mi North 15.0 mph 23.0 mph N/A   Overcast
8:07 AM 42.8 °F 35.8 °F 37.4 °F 81% 30.00 in 10.0 mi NNW 13.8 mph 21.9 mph N/A   Overcast
8:53 AM 43.0 °F 36.0 °F 37.9 °F 82% 30.02 in 10.0 mi North 13.8 mph 21.9 mph N/A   Overcast
9:26 AM 42.8 °F 36.2 °F 37.4 °F 81% 30.02 in 10.0 mi North 12.7 mph 23.0 mph N/A   Overcast
9:53 AM 43.0 °F 36.4 °F 37.9 °F 82% 30.05 in 10.0 mi North 12.7 mph 19.6 mph N/A   Overcast
10:00 AM 42.8 °F 37.5 °F 37.4 °F 81% 30.05 in 10.0 mi North 9.2 mph 19.6 mph N/A   Overcast
10:53 AM 43.0 °F 37.2 °F 37.0 °F 80% 30.07 in 10.0 mi North 10.4 mph 20.7 mph N/A   Overcast
11:53 AM 43.0 °F 36.0 °F 35.1 °F 74% 30.08 in 10.0 mi North 13.8 mph 19.6 mph N/A   Overcast
12:53 PM 43.0 °F 36.4 °F 34.0 °F 71% 30.10 in 10.0 mi North 12.7 mph - N/A   Overcast
1:22 PM 44.6 °F 38.8 °F 35.6 °F 71% 30.11 in 10.0 mi NNE 11.5 mph - N/A   Overcast
1:53 PM 44.1 °F 37.4 °F 35.1 °F 71% 30.12 in 10.0 mi North 13.8 mph 19.6 mph N/A   Overcast
2:53 PM 44.1 °F 39.0 °F 34.0 °F 68% 30.14 in 10.0 mi North 9.2 mph - N/A   Overcast
3:53 PM 44.1 °F 40.1 °F 33.1 °F 65% 30.17 in 10.0 mi North 6.9 mph - N/A   Partly Cloudy
4:53 PM 41.0 °F 39.0 °F 32.0 °F 70% 30.20 in 10.0 mi NE 3.5 mph - N/A   Mostly Cloudy
5:53 PM 41.0 °F 39.0 °F 33.1 °F 73% 30.23 in 10.0 mi North 3.5 mph - N/A   Overcast
6:53 PM 39.9 °F 35.8 °F 27.0 °F 60% 30.27 in 10.0 mi North 5.8 mph - N/A   Clear
7:53 PM 39.9 °F 32.5 °F 18.0 °F 41% 30.29 in 10.0 mi North 12.7 mph 20.7 mph N/A   Clear
8:53 PM 37.9 °F 29.2 °F 17.1 °F 43% 30.32 in 10.0 mi North 15.0 mph 20.7 mph N/A   Clear
9:53 PM 37.0 °F 28.1 °F 16.0 °F 42% 30.35 in 10.0 mi North 15.0 mph 23.0 mph N/A   Clear
10:53 PM 36.0 °F 28.0 °F 16.0 °F 44% 30.36 in 10.0 mi North 11.5 mph 21.9 mph N/A   Clear